Time,TemperatureF,DewpointF,PressureIn,WindDirection,WindDirectionDegrees,WindSpeedMPH,WindSpeedGustMPH,Humidity,HourlyPrecipIn,Conditions,Clouds,dailyrainin,SoftwareType,DateUTC
2013-01-02 00:00:00,47.1,46.6,29.96,SW,219,0.0,0.0,98,0.00,,,0.17,Wunderground v.1.15,2013-01-02 05:00:00,
2013-01-02 00:05:00,47.1,46.6,29.95,SW,219,0.0,0.0,98,0.00,,,0.00,Wunderground v.1.15,2013-01-02 05:05:00,
2013-01-02 00:10:00,47.1,46.6,29.95,SW,219,0.0,0.0,98,0.00,,,0.01,Wunderground v.1.15,2013-01-02 05:10:00,
2013-01-02 00:15:00,47.1,46.6,29.95,SW,219,0.0,0.0,98,0.00,,,0.01,Wunderground v.1.15,2013-01-02 05:15:00,
2013-01-02 00:20:00,47.1,46.6,29.95,SW,219,0.0,0.0,98,0.00,,,0.01,Wunderground v.1.15,2013-01-02 05:20:00,
2013-01-02 00:25:00,47.0,46.5,29.94,SW,219,0.0,0.0,98,0.00,,,0.01,Wunderground v.1.15,2013-01-02 05:25:00,
2013-01-02 00:30:00,47.0,46.5,29.94,SW,219,0.0,0.0,98,0.00,,,0.01,Wunderground v.1.15,2013-01-02 05:30:00,
2013-01-02 00:35:00,47.0,46.5,29.95,SW,219,0.0,0.0,98,0.00,,,0.02,Wunderground v.1.15,2013-01-02 05:35:00,
2013-01-02 00:40:00,47.0,46.5,29.94,SW,219,0.0,0.0,98,0.00,,,0.02,Wunderground v.1.15,2013-01-02 05:40:00,
2013-01-02 00:50:00,46.8,46.3,29.93,SW,219,0.0,0.0,98,0.00,,,0.02,Wunderground v.1.15,2013-01-02 05:50:00,
2013-01-02 00:55:00,46.8,46.3,29.93,SW,219,0.0,0.0,98,0.00,,,0.02,Wunderground v.1.15,2013-01-02 05:55:00,
2013-01-02 01:00:00,46.8,46.3,29.93,SW,219,0.0,0.0,98,0.00,,,0.03,Wunderground v.1.15,2013-01-02 06:00:00,
2013-01-02 01:05:00,46.7,46.2,29.94,SW,219,0.0,0.0,98,0.00,,,0.03,Wunderground v.1.15,2013-01-02 06:05:00,
2013-01-02 01:10:00,46.7,46.2,29.93,SW,219,0.0,0.0,98,0.00,,,0.03,Wunderground v.1.15,2013-01-02 06:10:00,
2013-01-02 01:15:00,46.7,46.2,29.92,SW,219,0.0,0.0,98,0.00,,,0.03,Wunderground v.1.15,2013-01-02 06:15:00,
2013-01-02 01:20:00,46.7,46.2,29.93,SW,219,0.0,0.0,98,0.00,,,0.03,Wunderground v.1.15,2013-01-02 06:20:00,
2013-01-02 01:25:00,46.5,46.0,29.92,SW,219,0.0,0.0,98,0.00,,,0.03,Wunderground v.1.15,2013-01-02 06:25:00,
2013-01-02 01:30:00,46.5,46.0,29.92,SW,219,0.0,0.0,98,0.00,,,0.04,Wunderground v.1.15,2013-01-02 06:30:00,
2013-01-02 01:35:00,46.5,46.0,29.92,SW,219,0.0,0.0,98,0.00,,,0.04,Wunderground v.1.15,2013-01-02 06:35:00,
2013-01-02 01:40:00,46.5,46.0,29.92,SW,219,0.0,0.0,98,0.00,,,0.04,Wunderground v.1.15,2013-01-02 06:40:00,
2013-01-02 01:45:00,46.5,46.0,29.93,SW,219,0.0,0.0,98,0.00,,,0.05,Wunderground v.1.15,2013-01-02 06:45:00,
2013-01-02 01:50:00,46.5,46.0,29.92,SW,219,0.0,0.0,98,0.00,,,0.05,Wunderground v.1.15,2013-01-02 06:50:00,
2013-01-02 01:55:00,46.5,46.0,29.93,SW,219,0.0,0.0,98,0.00,,,0.05,Wunderground v.1.15,2013-01-02 06:55:00,
2013-01-02 02:00:00,46.5,46.0,29.94,SW,219,0.0,0.0,98,0.05,,,0.06,Wunderground v.1.15,2013-01-02 07:00:00,
2013-01-02 02:05:00,46.5,46.0,29.95,SW,219,0.0,0.0,98,0.05,,,0.06,Wunderground v.1.15,2013-01-02 07:05:00,
2013-01-02 02:10:00,46.5,46.0,29.94,SW,219,0.0,0.0,98,0.06,,,0.07,Wunderground v.1.15,2013-01-02 07:10:00,
2013-01-02 02:15:00,46.5,46.0,29.93,SW,219,0.0,0.0,98,0.09,,,0.08,Wunderground v.1.15,2013-01-02 07:15:00,
2013-01-02 02:20:00,46.5,46.0,29.94,SW,219,0.0,0.0,98,0.11,,,0.09,Wunderground v.1.15,2013-01-02 07:20:00,
2013-01-02 02:25:00,46.5,46.0,29.94,SW,219,0.0,0.0,98,0.08,,,0.10,Wunderground v.1.15,2013-01-02 07:25:00,
2013-01-02 02:30:00,46.5,46.0,29.94,SW,219,0.0,0.0,98,0.08,,,0.10,Wunderground v.1.15,2013-01-02 07:30:00,
2013-01-02 02:35:00,46.5,46.0,29.94,SW,219,0.0,0.0,98,0.09,,,0.11,Wunderground v.1.15,2013-01-02 07:35:00,
2013-01-02 02:40:00,46.4,45.9,29.92,SW,219,0.0,0.0,98,0.07,,,0.11,Wunderground v.1.15,2013-01-02 07:40:00,
2013-01-02 02:45:00,46.4,45.9,29.92,SW,219,0.0,0.0,98,0.05,,,0.11,Wunderground v.1.15,2013-01-02 07:45:00,
2013-01-02 02:50:00,46.4,45.9,29.93,SW,219,0.0,0.0,98,0.00,,,0.11,Wunderground v.1.15,2013-01-02 07:50:00,
2013-01-02 02:55:00,46.4,45.9,29.93,SW,219,0.0,0.0,98,0.00,,,0.11,Wunderground v.1.15,2013-01-02 07:55:00,
2013-01-02 03:00:00,46.4,45.9,29.93,NW,311,0.0,0.0,98,0.00,,,0.12,Wunderground v.1.15,2013-01-02 08:00:00,
2013-01-02 03:10:00,46.5,46.0,29.96,NNW,340,0.0,0.0,98,0.00,,,0.12,Wunderground v.1.15,2013-01-02 08:10:00,
2013-01-02 03:20:00,46.5,46.0,29.94,NNW,340,0.0,0.0,98,0.00,,,0.12,Wunderground v.1.15,2013-01-02 08:20:00,
2013-01-02 03:25:00,46.5,46.0,29.93,NNE,21,0.0,0.0,98,0.00,,,0.12,Wunderground v.1.15,2013-01-02 08:25:00,
2013-01-02 03:30:00,46.5,46.0,29.95,NNE,27,1.0,1.0,98,0.00,,,0.12,Wunderground v.1.15,2013-01-02 08:30:00,
2013-01-02 03:40:00,46.5,46.0,29.94,NE,46,1.0,1.0,98,0.00,,,0.12,Wunderground v.1.15,2013-01-02 08:40:00,
2013-01-02 03:50:00,46.2,45.7,29.94,NE,46,1.0,1.0,98,0.00,,,0.12,Wunderground v.1.15,2013-01-02 08:50:00,
2013-01-02 03:55:00,46.2,45.7,29.94,NE,37,1.0,1.0,98,0.00,,,0.12,Wunderground v.1.15,2013-01-02 08:55:00,
2013-01-02 04:00:00,46.1,45.6,29.95,NNE,19,2.0,2.0,98,0.00,,,0.12,Wunderground v.1.15,2013-01-02 09:00:00,
2013-01-02 04:10:00,45.5,45.0,29.94,NE,38,3.0,4.0,98,0.00,,,0.12,Wunderground v.1.15,2013-01-02 09:10:00,
2013-01-02 04:15:00,45.3,44.8,29.95,NE,39,3.0,4.0,98,0.00,,,0.13,Wunderground v.1.15,2013-01-02 09:15:00,
2013-01-02 04:20:00,45.2,44.7,29.94,NE,42,3.0,7.0,98,0.00,,,0.13,Wunderground v.1.15,2013-01-02 09:20:00,
2013-01-02 04:25:00,45.0,44.5,29.94,NNE,31,3.0,7.0,98,0.00,,,0.13,Wunderground v.1.15,2013-01-02 09:25:00,
2013-01-02 04:30:00,44.7,44.2,29.95,North,9,3.0,6.0,98,0.00,,,0.13,Wunderground v.1.15,2013-01-02 09:30:00,
2013-01-02 04:35:00,44.6,44.1,29.95,NE,55,3.0,6.0,98,0.00,,,0.13,Wunderground v.1.15,2013-01-02 09:35:00,
2013-01-02 04:40:00,44.3,42.7,29.96,NNE,31,3.0,5.0,94,0.00,,,0.13,Wunderground v.1.15,2013-01-02 09:40:00,
2013-01-02 04:45:00,44.2,43.7,29.96,NE,35,3.0,5.0,98,0.00,,,0.13,Wunderground v.1.15,2013-01-02 09:45:00,
2013-01-02 04:50:00,43.9,43.4,29.96,NNE,31,3.0,6.0,98,0.00,,,0.13,Wunderground v.1.15,2013-01-02 09:50:00,
2013-01-02 05:00:00,43.3,42.5,29.97,ENE,69,4.0,5.0,97,0.00,,,0.13,Wunderground v.1.15,2013-01-02 10:00:00,
2013-01-02 05:05:00,43.0,42.2,29.97,NNE,24,3.0,5.0,97,0.00,,,0.13,Wunderground v.1.15,2013-01-02 10:05:00,
2013-01-02 05:10:00,42.7,41.9,29.97,North,11,3.0,3.0,97,0.00,,,0.13,Wunderground v.1.15,2013-01-02 10:10:00,
2013-01-02 05:15:00,42.4,41.6,29.98,North,11,2.0,3.0,97,0.00,,,0.13,Wunderground v.1.15,2013-01-02 10:15:00,
2013-01-02 05:20:00,42.1,41.3,29.97,North,5,2.0,4.0,97,0.00,,,0.13,Wunderground v.1.15,2013-01-02 10:20:00,
2013-01-02 05:30:00,41.8,41.0,29.98,NE,36,3.0,3.0,97,0.00,,,0.13,Wunderground v.1.15,2013-01-02 10:30:00,
2013-01-02 05:35:00,41.7,40.9,29.99,NE,41,3.0,3.0,97,0.00,,,0.13,Wunderground v.1.15,2013-01-02 10:35:00,
2013-01-02 05:40:00,41.6,40.8,29.99,NNE,26,3.0,3.0,97,0.00,,,0.14,Wunderground v.1.15,2013-01-02 10:40:00,
2013-01-02 05:45:00,41.6,40.8,29.99,NE,36,3.0,3.0,97,0.00,,,0.14,Wunderground v.1.15,2013-01-02 10:45:00,
2013-01-02 05:50:00,41.4,40.6,29.99,NNE,12,3.0,3.0,97,0.00,,,0.14,Wunderground v.1.15,2013-01-02 10:50:00,
2013-01-02 06:00:00,41.3,40.2,29.99,North,9,2.0,4.0,96,0.00,,,0.14,Wunderground v.1.15,2013-01-02 11:00:00,
2013-01-02 06:05:00,41.1,40.0,29.99,North,5,3.0,4.0,96,0.00,,,0.14,Wunderground v.1.15,2013-01-02 11:05:00,
2013-01-02 06:10:00,41.0,39.9,29.99,North,351,3.0,4.0,96,0.00,,,0.14,Wunderground v.1.15,2013-01-02 11:10:00,
2013-01-02 06:15:00,41.0,39.9,30.00,North,5,2.0,4.0,96,0.00,,,0.14,Wunderground v.1.15,2013-01-02 11:15:00,
2013-01-02 06:20:00,41.0,39.9,30.00,NNE,33,2.0,2.0,96,0.00,,,0.14,Wunderground v.1.15,2013-01-02 11:20:00,
2013-01-02 06:25:00,41.0,39.9,30.00,NE,34,1.0,2.0,96,0.00,,,0.14,Wunderground v.1.15,2013-01-02 11:25:00,
2013-01-02 06:30:00,41.0,39.9,30.01,NE,34,1.0,1.0,96,0.00,,,0.14,Wunderground v.1.15,2013-01-02 11:30:00,
2013-01-02 06:35:00,41.0,39.9,30.01,NE,34,0.0,1.0,96,0.00,,,0.14,Wunderground v.1.15,2013-01-02 11:35:00,
2013-01-02 06:40:00,41.0,39.9,30.00,NE,38,0.0,4.0,96,0.00,,,0.14,Wunderground v.1.15,2013-01-02 11:40:00,
2013-01-02 06:45:00,41.0,39.9,30.00,ENE,70,1.0,4.0,96,0.00,,,0.14,Wunderground v.1.15,2013-01-02 11:45:00,
2013-01-02 06:50:00,41.0,39.9,30.00,ENE,70,1.0,1.0,96,0.00,,,0.14,Wunderground v.1.15,2013-01-02 11:50:00,
2013-01-02 06:55:00,41.0,39.9,30.00,ENE,63,0.0,1.0,96,0.00,,,0.14,Wunderground v.1.15,2013-01-02 11:55:00,
2013-01-02 07:00:00,41.0,40.2,30.00,ENE,63,0.0,0.0,97,0.00,,,0.14,Wunderground v.1.15,2013-01-02 12:00:00,
2013-01-02 07:05:00,41.0,40.2,30.00,ENE,63,0.0,0.0,97,0.00,,,0.14,Wunderground v.1.15,2013-01-02 12:05:00,
2013-01-02 07:10:00,41.0,40.2,30.00,ENE,63,0.0,0.0,97,0.00,,,0.14,Wunderground v.1.15,2013-01-02 12:10:00,
2013-01-02 07:15:00,41.0,40.2,30.00,East,82,0.0,0.0,97,0.00,,,0.14,Wunderground v.1.15,2013-01-02 12:15:00,
2013-01-02 07:20:00,41.0,40.2,30.00,East,82,0.0,1.0,97,0.00,,,0.14,Wunderground v.1.15,2013-01-02 12:20:00,
2013-01-02 07:25:00,41.0,40.2,30.00,ENE,59,0.0,1.0,97,0.00,,,0.14,Wunderground v.1.15,2013-01-02 12:25:00,
2013-01-02 07:30:00,41.0,40.2,30.01,ENE,59,0.0,0.0,97,0.00,,,0.14,Wunderground v.1.15,2013-01-02 12:30:00,
2013-01-02 07:35:00,40.8,40.0,30.01,NE,53,0.0,0.0,97,0.00,,,0.14,Wunderground v.1.15,2013-01-02 12:35:00,
2013-01-02 07:40:00,40.8,40.0,30.01,NE,53,0.0,0.0,97,0.00,,,0.14,Wunderground v.1.15,2013-01-02 12:40:00,
2013-01-02 07:45:00,40.8,40.0,30.02,NE,46,0.0,0.0,97,0.00,,,0.14,Wunderground v.1.15,2013-01-02 12:45:00,
2013-01-02 07:50:00,40.8,40.0,30.02,NE,36,1.0,1.0,97,0.00,,,0.14,Wunderground v.1.15,2013-01-02 12:50:00,
2013-01-02 07:55:00,40.7,39.9,30.03,NE,36,0.0,1.0,97,0.00,,,0.14,Wunderground v.1.15,2013-01-02 12:55:00,
2013-01-02 08:00:00,40.7,39.9,30.03,NE,38,1.0,2.0,97,0.00,,,0.14,Wunderground v.1.15,2013-01-02 13:00:00,
2013-01-02 08:05:00,40.6,39.8,30.03,NE,38,1.0,2.0,97,0.00,,,0.14,Wunderground v.1.15,2013-01-02 13:05:00,
2013-01-02 08:10:00,40.6,39.8,30.03,NNE,30,1.0,1.0,97,0.00,,,0.14,Wunderground v.1.15,2013-01-02 13:10:00,
2013-01-02 08:15:00,40.6,39.8,30.04,NNE,30,1.0,1.0,97,0.00,,,0.14,Wunderground v.1.15,2013-01-02 13:15:00,
2013-01-02 08:20:00,40.6,39.8,30.03,NNE,25,1.0,1.0,97,0.00,,,0.14,Wunderground v.1.15,2013-01-02 13:20:00,
2013-01-02 08:25:00,40.4,39.6,30.04,NNE,33,1.0,1.0,97,0.00,,,0.14,Wunderground v.1.15,2013-01-02 13:25:00,
2013-01-02 08:30:00,40.4,39.6,30.04,NNE,33,1.0,1.0,97,0.00,,,0.14,Wunderground v.1.15,2013-01-02 13:30:00,
2013-01-02 08:35:00,40.4,39.6,30.05,NNE,15,0.0,3.0,97,0.00,,,0.14,Wunderground v.1.15,2013-01-02 13:35:00,
2013-01-02 08:40:00,40.4,39.6,30.05,NNE,16,1.0,1.0,97,0.00,,,0.14,Wunderground v.1.15,2013-01-02 13:40:00,
2013-01-02 08:45:00,40.4,39.6,30.06,NNE,16,1.0,1.0,97,0.00,,,0.14,Wunderground v.1.15,2013-01-02 13:45:00,
2013-01-02 08:50:00,40.4,39.4,30.06,North,351,1.0,1.0,96,0.00,,,0.14,Wunderground v.1.15,2013-01-02 13:50:00,
2013-01-02 08:55:00,40.3,39.3,30.06,North,360,2.0,5.0,96,0.00,,,0.14,Wunderground v.1.15,2013-01-02 13:55:00,
2013-01-02 09:00:00,40.3,39.3,30.06,North,5,2.0,2.0,96,0.00,,,0.14,Wunderground v.1.15,2013-01-02 14:00:00,
2013-01-02 09:05:00,40.1,39.1,30.07,North,351,2.0,4.0,96,0.00,,,0.14,Wunderground v.1.15,2013-01-02 14:05:00,
2013-01-02 09:10:00,40.1,38.8,30.07,North,355,3.0,4.0,95,0.00,,,0.14,Wunderground v.1.15,2013-01-02 14:10:00,
2013-01-02 09:15:00,40.3,39.0,30.07,NE,38,3.0,4.0,95,0.00,,,0.14,Wunderground v.1.15,2013-01-02 14:15:00,
2013-01-02 09:20:00,40.4,39.1,30.08,NNE,27,3.0,3.0,95,0.00,,,0.14,Wunderground v.1.15,2013-01-02 14:20:00,
2013-01-02 09:25:00,40.4,38.5,30.08,North,5,3.0,3.0,93,0.00,,,0.14,Wunderground v.1.15,2013-01-02 14:25:00,
2013-01-02 09:30:00,40.6,38.7,30.08,North,355,4.0,5.0,93,0.00,,,0.14,Wunderground v.1.15,2013-01-02 14:30:00,
2013-01-02 09:35:00,40.4,38.0,30.08,North,9,4.0,5.0,91,0.00,,,0.14,Wunderground v.1.15,2013-01-02 14:35:00,
2013-01-02 09:40:00,40.3,37.6,30.09,NNE,12,4.0,6.0,90,0.00,,,0.14,Wunderground v.1.15,2013-01-02 14:40:00,
2013-01-02 09:45:00,40.1,36.8,30.09,North,5,4.0,6.0,88,0.00,,,0.14,Wunderground v.1.15,2013-01-02 14:45:00,
2013-01-02 09:50:00,40.3,37.0,30.09,NNE,22,4.0,4.0,88,0.00,,,0.14,Wunderground v.1.15,2013-01-02 14:50:00,
2013-01-02 09:55:00,40.7,37.4,30.08,NE,51,4.0,5.0,88,0.00,,,0.14,Wunderground v.1.15,2013-01-02 14:55:00,
2013-01-02 10:00:00,41.1,37.5,30.09,NNW,345,3.0,3.0,87,0.00,,,0.14,Wunderground v.1.15,2013-01-02 15:00:00,
2013-01-02 10:10:00,41.3,37.1,30.10,NNW,342,4.0,4.0,85,0.00,,,0.14,Wunderground v.1.15,2013-01-02 15:10:00,
2013-01-02 10:20:00,41.4,36.6,30.09,NNE,30,2.0,2.0,83,0.00,,,0.14,Wunderground v.1.15,2013-01-02 15:20:00,
2013-01-02 10:25:00,41.6,36.8,30.09,North,9,2.0,2.0,83,0.00,,,0.14,Wunderground v.1.15,2013-01-02 15:25:00,
2013-01-02 10:30:00,41.7,37.2,30.09,NNE,16,3.0,3.0,84,0.00,,,0.14,Wunderground v.1.15,2013-01-02 15:30:00,
2013-01-02 10:40:00,41.7,36.0,30.09,North,5,4.0,5.0,80,0.00,,,0.14,Wunderground v.1.15,2013-01-02 15:40:00,
2013-01-02 10:45:00,41.7,36.3,30.10,North,350,4.0,5.0,81,0.00,,,0.14,Wunderground v.1.15,2013-01-02 15:45:00,
2013-01-02 10:50:00,41.6,36.2,30.10,NNW,345,3.0,4.0,81,0.00,,,0.14,Wunderground v.1.15,2013-01-02 15:50:00,
2013-01-02 10:55:00,41.7,36.3,30.10,NNE,28,3.0,4.0,81,0.00,,,0.14,Wunderground v.1.15,2013-01-02 15:55:00,
2013-01-02 11:00:00,41.7,36.0,30.09,NNE,25,3.0,4.0,80,0.00,,,0.14,Wunderground v.1.15,2013-01-02 16:00:00,
2013-01-02 11:05:00,41.7,36.3,30.09,NNE,13,3.0,4.0,81,0.00,,,0.14,Wunderground v.1.15,2013-01-02 16:05:00,
2013-01-02 11:10:00,41.8,36.1,30.11,North,5,3.0,4.0,80,0.00,,,0.14,Wunderground v.1.15,2013-01-02 16:10:00,
2013-01-02 11:15:00,41.8,36.4,30.11,North,360,2.0,4.0,81,0.00,,,0.14,Wunderground v.1.15,2013-01-02 16:15:00,
2013-01-02 11:20:00,42.0,36.0,30.10,North,5,2.0,2.0,79,0.00,,,0.14,Wunderground v.1.15,2013-01-02 16:20:00,
2013-01-02 11:25:00,42.3,36.3,30.09,North,360,2.0,4.0,79,0.00,,,0.14,Wunderground v.1.15,2013-01-02 16:25:00,
2013-01-02 11:30:00,42.4,36.3,30.09,NNW,337,1.0,4.0,79,0.00,,,0.14,Wunderground v.1.15,2013-01-02 16:30:00,
2013-01-02 11:40:00,42.4,34.0,30.08,North,10,4.0,5.0,72,0.00,,,0.14,Wunderground v.1.15,2013-01-02 16:40:00,
2013-01-02 11:45:00,42.3,33.9,30.08,NNW,348,4.0,5.0,72,0.00,,,0.14,Wunderground v.1.15,2013-01-02 16:45:00,
2013-01-02 11:50:00,42.3,34.3,30.09,NNE,18,3.0,3.0,73,0.00,,,0.14,Wunderground v.1.15,2013-01-02 16:50:00,
2013-01-02 11:55:00,42.3,34.3,30.08,North,360,2.0,3.0,73,0.00,,,0.14,Wunderground v.1.15,2013-01-02 16:55:00,
2013-01-02 12:00:00,42.3,34.3,30.09,North,360,1.0,2.0,73,0.00,,,0.14,Wunderground v.1.15,2013-01-02 17:00:00,
2013-01-02 12:05:00,42.7,35.3,30.09,North,355,1.0,2.0,75,0.00,,,0.14,Wunderground v.1.15,2013-01-02 17:05:00,
2013-01-02 12:10:00,43.6,35.5,30.09,NE,38,1.0,1.0,73,0.00,,,0.14,Wunderground v.1.15,2013-01-02 17:10:00,
2013-01-02 12:15:00,44.2,35.0,30.08,NNW,339,2.0,2.0,70,0.00,,,0.14,Wunderground v.1.15,2013-01-02 17:15:00,
2013-01-02 12:20:00,44.3,35.1,30.08,NE,38,2.0,3.0,70,0.00,,,0.14,Wunderground v.1.15,2013-01-02 17:20:00,
2013-01-02 12:25:00,44.2,33.6,30.07,NNE,20,4.0,4.0,66,0.00,,,0.14,Wunderground v.1.15,2013-01-02 17:25:00,
2013-01-02 12:30:00,44.2,34.3,30.07,North,360,4.0,4.0,68,0.00,,,0.14,Wunderground v.1.15,2013-01-02 17:30:00,
2013-01-02 12:35:00,44.0,33.4,30.06,North,11,4.0,5.0,66,0.00,,,0.14,Wunderground v.1.15,2013-01-02 17:35:00,
2013-01-02 12:40:00,44.0,34.1,30.06,North,5,4.0,4.0,68,0.00,,,0.14,Wunderground v.1.15,2013-01-02 17:40:00,
2013-01-02 12:45:00,44.0,33.7,30.07,North,5,3.0,4.0,67,0.00,,,0.14,Wunderground v.1.15,2013-01-02 17:45:00,
2013-01-02 12:50:00,43.9,33.3,30.06,NNW,338,3.0,3.0,66,0.00,,,0.14,Wunderground v.1.15,2013-01-02 17:50:00,
2013-01-02 12:55:00,43.9,33.3,30.05,North,5,3.0,3.0,66,0.00,,,0.14,Wunderground v.1.15,2013-01-02 17:55:00,
2013-01-02 13:00:00,44.0,33.7,30.05,North,355,2.0,4.0,67,0.00,,,0.14,Wunderground v.1.15,2013-01-02 18:00:00,
2013-01-02 13:05:00,44.2,33.9,30.05,NE,42,2.0,4.0,67,0.00,,,0.14,Wunderground v.1.15,2013-01-02 18:05:00,
2013-01-02 13:10:00,44.3,33.3,30.06,North,355,2.0,2.0,65,0.00,,,0.14,Wunderground v.1.15,2013-01-02 18:10:00,
2013-01-02 13:15:00,44.7,34.4,30.06,NNW,336,2.0,2.0,67,0.00,,,0.14,Wunderground v.1.15,2013-01-02 18:15:00,
2013-01-02 13:20:00,44.9,33.5,30.04,North,360,1.0,1.0,64,0.00,,,0.14,Wunderground v.1.15,2013-01-02 18:20:00,
2013-01-02 13:30:00,45.2,32.9,30.06,North,9,1.0,4.0,62,0.00,,,0.14,Wunderground v.1.15,2013-01-02 18:30:00,
2013-01-02 13:35:00,45.2,33.3,30.06,North,355,1.0,4.0,63,0.00,,,0.14,Wunderground v.1.15,2013-01-02 18:35:00,
2013-01-02 13:40:00,45.2,32.5,30.06,NNE,14,1.0,1.0,61,0.00,,,0.14,Wunderground v.1.15,2013-01-02 18:40:00,
2013-01-02 13:50:00,45.3,33.4,30.05,NNE,26,2.0,4.0,63,0.00,,,0.14,Wunderground v.1.15,2013-01-02 18:50:00,
2013-01-02 13:55:00,45.3,33.4,30.05,NNE,20,2.0,4.0,63,0.00,,,0.14,Wunderground v.1.15,2013-01-02 18:55:00,
2013-01-02 14:00:00,45.5,33.6,30.06,North,9,2.0,2.0,63,0.00,,,0.14,Wunderground v.1.15,2013-01-02 19:00:00,
2013-01-02 14:05:00,45.6,33.3,30.05,NNE,15,1.0,2.0,62,0.00,,,0.14,Wunderground v.1.15,2013-01-02 19:05:00,
2013-01-02 14:10:00,45.9,34.0,30.05,NE,49,2.0,2.0,63,0.00,,,0.14,Wunderground v.1.15,2013-01-02 19:10:00,
2013-01-02 14:20:00,45.5,33.2,30.05,NNE,16,2.0,2.0,62,0.00,,,0.14,Wunderground v.1.15,2013-01-02 19:20:00,
2013-01-02 14:30:00,45.3,32.2,30.06,North,360,3.0,3.0,60,0.00,,,0.14,Wunderground v.1.15,2013-01-02 19:30:00,
2013-01-02 14:35:00,45.2,33.3,30.06,North,11,1.0,3.0,63,0.00,,,0.14,Wunderground v.1.15,2013-01-02 19:35:00,
2013-01-02 14:40:00,45.5,33.2,30.06,North,5,0.0,0.0,62,0.00,,,0.14,Wunderground v.1.15,2013-01-02 19:40:00,
2013-01-02 14:45:00,45.6,32.9,30.07,North,350,0.0,0.0,61,0.00,,,0.14,Wunderground v.1.15,2013-01-02 19:45:00,
2013-01-02 14:50:00,45.6,32.9,30.08,North,350,0.0,0.0,61,0.00,,,0.14,Wunderground v.1.15,2013-01-02 19:50:00,
2013-01-02 15:00:00,45.8,33.5,30.07,NE,42,0.0,1.0,62,0.00,,,0.14,Wunderground v.1.15,2013-01-02 20:00:00,
2013-01-02 15:10:00,45.6,32.9,30.07,NNE,19,1.0,1.0,61,0.00,,,0.14,Wunderground v.1.15,2013-01-02 20:10:00,
2013-01-02 15:15:00,45.5,33.6,30.07,NNE,19,1.0,1.0,63,0.00,,,0.14,Wunderground v.1.15,2013-01-02 20:15:00,
2013-01-02 15:20:00,45.3,33.4,30.07,NNE,19,0.0,0.0,63,0.00,,,0.14,Wunderground v.1.15,2013-01-02 20:20:00,
2013-01-02 15:25:00,45.3,33.4,30.08,North,360,0.0,0.0,63,0.00,,,0.14,Wunderground v.1.15,2013-01-02 20:25:00,
2013-01-02 15:30:00,45.2,33.3,30.08,North,355,0.0,0.0,63,0.00,,,0.14,Wunderground v.1.15,2013-01-02 20:30:00,
2013-01-02 15:35:00,45.2,32.9,30.08,North,5,0.0,0.0,62,0.00,,,0.14,Wunderground v.1.15,2013-01-02 20:35:00,
2013-01-02 15:40:00,45.2,32.9,30.07,North,5,0.0,0.0,62,0.00,,,0.14,Wunderground v.1.15,2013-01-02 20:40:00,
2013-01-02 15:45:00,45.0,33.2,30.08,North,5,0.0,0.0,63,0.00,,,0.14,Wunderground v.1.15,2013-01-02 20:45:00,
2013-01-02 15:50:00,45.2,33.7,30.08,North,5,0.0,0.0,64,0.00,,,0.14,Wunderground v.1.15,2013-01-02 20:50:00,
2013-01-02 15:55:00,45.2,33.7,30.08,North,5,0.0,0.0,64,0.00,,,0.14,Wunderground v.1.15,2013-01-02 20:55:00,
2013-01-02 16:00:00,45.3,33.4,30.09,North,5,0.0,0.0,63,0.00,,,0.14,Wunderground v.1.15,2013-01-02 21:00:00,
2013-01-02 16:05:00,45.3,33.8,30.09,North,5,0.0,0.0,64,0.00,,,0.14,Wunderground v.1.15,2013-01-02 21:05:00,
2013-01-02 16:10:00,45.3,34.2,30.10,North,5,0.0,0.0,65,0.00,,,0.14,Wunderground v.1.15,2013-01-02 21:10:00,
2013-01-02 16:20:00,45.3,33.4,30.09,North,5,0.0,0.0,63,0.00,,,0.14,Wunderground v.1.15,2013-01-02 21:20:00,
2013-01-02 16:25:00,45.3,33.8,30.09,North,5,0.0,1.0,64,0.00,,,0.14,Wunderground v.1.15,2013-01-02 21:25:00,
2013-01-02 16:30:00,45.2,33.7,30.10,North,5,0.0,0.0,64,0.00,,,0.14,Wunderground v.1.15,2013-01-02 21:30:00,
2013-01-02 16:40:00,45.0,34.3,30.09,North,5,0.0,0.0,66,0.00,,,0.14,Wunderground v.1.15,2013-01-02 21:40:00,
2013-01-02 16:45:00,44.9,33.8,30.10,North,5,0.0,0.0,65,0.00,,,0.14,Wunderground v.1.15,2013-01-02 21:45:00,
2013-01-02 16:50:00,44.6,34.3,30.10,North,5,0.0,0.0,67,0.00,,,0.14,Wunderground v.1.15,2013-01-02 21:50:00,
2013-01-02 16:55:00,44.5,34.6,30.10,North,5,0.0,0.0,68,0.00,,,0.14,Wunderground v.1.15,2013-01-02 21:55:00,
2013-01-02 17:00:00,44.3,34.0,30.10,North,5,0.0,0.0,67,0.00,,,0.14,Wunderground v.1.15,2013-01-02 22:00:00,
2013-01-02 17:10:00,44.0,34.5,30.09,North,5,0.0,0.0,69,0.00,,,0.14,Wunderground v.1.15,2013-01-02 22:10:00,
2013-01-02 17:15:00,43.9,34.7,30.09,North,5,0.0,0.0,70,0.00,,,0.14,Wunderground v.1.15,2013-01-02 22:15:00,
2013-01-02 17:20:00,43.6,34.5,30.09,North,5,0.0,0.0,70,0.00,,,0.14,Wunderground v.1.15,2013-01-02 22:20:00,
2013-01-02 17:25:00,43.4,34.3,30.09,North,5,0.0,0.0,70,0.00,,,0.14,Wunderground v.1.15,2013-01-02 22:25:00,
2013-01-02 17:30:00,43.3,34.2,30.10,North,5,0.0,0.0,70,0.00,,,0.14,Wunderground v.1.15,2013-01-02 22:30:00,
2013-01-02 17:35:00,43.1,34.3,30.10,North,5,0.0,0.0,71,0.00,,,0.14,Wunderground v.1.15,2013-01-02 22:35:00,
2013-01-02 17:40:00,43.0,34.6,30.10,North,5,0.0,0.0,72,0.00,,,0.14,Wunderground v.1.15,2013-01-02 22:40:00,
2013-01-02 17:45:00,42.8,34.4,30.10,North,5,0.0,0.0,72,0.00,,,0.14,Wunderground v.1.15,2013-01-02 22:45:00,
2013-01-02 17:50:00,42.7,34.3,30.10,North,5,0.0,0.0,72,0.00,,,0.14,Wunderground v.1.15,2013-01-02 22:50:00,
2013-01-02 17:55:00,42.6,34.5,30.10,North,5,0.0,0.0,73,0.00,,,0.14,Wunderground v.1.15,2013-01-02 22:55:00,
2013-01-02 18:00:00,42.4,34.4,30.10,North,5,0.0,0.0,73,0.00,,,0.14,Wunderground v.1.15,2013-01-02 23:00:00,
2013-01-02 18:05:00,42.4,34.4,30.11,North,5,0.0,0.0,73,0.00,,,0.14,Wunderground v.1.15,2013-01-02 23:05:00,
2013-01-02 18:10:00,42.3,34.6,30.12,North,5,0.0,0.0,74,0.00,,,0.14,Wunderground v.1.15,2013-01-02 23:10:00,
2013-01-02 18:15:00,42.3,34.6,30.11,North,5,0.0,0.0,74,0.00,,,0.14,Wunderground v.1.15,2013-01-02 23:15:00,
2013-01-02 18:20:00,42.1,34.4,30.12,North,5,0.0,0.0,74,0.00,,,0.14,Wunderground v.1.15,2013-01-02 23:20:00,
2013-01-02 18:25:00,42.0,34.6,30.12,North,5,0.0,0.0,75,0.00,,,0.14,Wunderground v.1.15,2013-01-02 23:25:00,
2013-01-02 18:30:00,41.8,34.8,30.12,North,5,0.0,0.0,76,0.00,,,0.14,Wunderground v.1.15,2013-01-02 23:30:00,
2013-01-02 18:35:00,41.7,35.0,30.11,North,5,0.0,0.0,77,0.00,,,0.14,Wunderground v.1.15,2013-01-02 23:35:00,
2013-01-02 18:40:00,41.3,34.6,30.13,North,5,0.0,0.0,77,0.00,,,0.14,Wunderground v.1.15,2013-01-02 23:40:00,
2013-01-02 18:45:00,41.1,34.8,30.12,North,5,0.0,0.0,78,0.00,,,0.14,Wunderground v.1.15,2013-01-02 23:45:00,
2013-01-02 18:50:00,41.0,35.0,30.13,North,5,0.0,0.0,79,0.00,,,0.14,Wunderground v.1.15,2013-01-02 23:50:00,
2013-01-02 19:00:00,40.6,34.9,30.14,North,5,0.0,0.0,80,0.00,,,0.14,Wunderground v.1.15,2013-01-03 00:00:00,
2013-01-02 19:05:00,40.4,34.7,30.14,North,5,0.0,0.0,80,0.00,,,0.14,Wunderground v.1.15,2013-01-03 00:05:00,
2013-01-02 19:10:00,40.4,35.0,30.14,North,5,0.0,0.0,81,0.00,,,0.14,Wunderground v.1.15,2013-01-03 00:10:00,
2013-01-02 19:15:00,40.3,35.2,30.15,North,5,0.0,0.0,82,0.00,,,0.14,Wunderground v.1.15,2013-01-03 00:15:00,
2013-01-02 19:20:00,40.1,35.0,30.15,North,5,0.0,0.0,82,0.00,,,0.14,Wunderground v.1.15,2013-01-03 00:20:00,
2013-01-02 19:25:00,40.1,35.4,30.14,North,5,0.0,0.0,83,0.00,,,0.14,Wunderground v.1.15,2013-01-03 00:25:00,
2013-01-02 19:30:00,40.0,35.3,30.15,North,5,0.0,0.0,83,0.00,,,0.14,Wunderground v.1.15,2013-01-03 00:30:00,
2013-01-02 19:35:00,40.0,35.3,30.15,North,5,0.0,0.0,83,0.00,,,0.14,Wunderground v.1.15,2013-01-03 00:35:00,
2013-01-02 19:40:00,40.0,35.3,30.14,North,5,0.0,0.0,83,0.00,,,0.14,Wunderground v.1.15,2013-01-03 00:40:00,
2013-01-02 19:45:00,39.8,35.1,30.14,North,5,0.0,0.0,83,0.00,,,0.14,Wunderground v.1.15,2013-01-03 00:45:00,
2013-01-02 19:50:00,39.8,34.8,30.15,North,5,0.0,0.0,82,0.00,,,0.14,Wunderground v.1.15,2013-01-03 00:50:00,
2013-01-02 19:55:00,39.7,35.3,30.15,North,5,0.0,0.0,84,0.00,,,0.14,Wunderground v.1.15,2013-01-03 00:55:00,
2013-01-02 20:00:00,39.6,35.2,30.14,North,5,0.0,0.0,84,0.00,,,0.14,Wunderground v.1.15,2013-01-03 01:00:00,
2013-01-02 20:10:00,39.6,34.9,30.14,North,5,0.0,0.0,83,0.00,,,0.14,Wunderground v.1.15,2013-01-03 01:10:00,
2013-01-02 20:15:00,39.6,34.9,30.14,North,5,0.0,0.0,83,0.00,,,0.14,Wunderground v.1.15,2013-01-03 01:15:00,
2013-01-02 20:20:00,39.6,35.2,30.13,North,5,0.0,0.0,84,0.00,,,0.14,Wunderground v.1.15,2013-01-03 01:20:00,
2013-01-02 20:25:00,39.6,35.2,30.14,North,5,0.0,0.0,84,0.00,,,0.14,Wunderground v.1.15,2013-01-03 01:25:00,
2013-01-02 20:30:00,39.6,34.9,30.15,North,5,0.0,0.0,83,0.00,,,0.14,Wunderground v.1.15,2013-01-03 01:30:00,
2013-01-02 20:35:00,39.6,34.9,30.15,North,5,0.0,0.0,83,0.00,,,0.14,Wunderground v.1.15,2013-01-03 01:35:00,
2013-01-02 20:40:00,39.6,34.9,30.14,North,5,0.0,1.0,83,0.00,,,0.14,Wunderground v.1.15,2013-01-03 01:40:00,
2013-01-02 20:45:00,39.6,34.9,30.14,North,5,0.0,1.0,83,0.00,,,0.14,Wunderground v.1.15,2013-01-03 01:45:00,
2013-01-02 20:50:00,39.6,34.9,30.14,North,5,0.0,0.0,83,0.00,,,0.14,Wunderground v.1.15,2013-01-03 01:50:00,
2013-01-02 20:55:00,39.6,34.9,30.15,North,5,0.0,0.0,83,0.00,,,0.14,Wunderground v.1.15,2013-01-03 01:55:00,
2013-01-02 21:00:00,39.6,34.9,30.16,North,5,0.0,0.0,83,0.00,,,0.14,Wunderground v.1.15,2013-01-03 02:00:00,
2013-01-02 21:10:00,39.6,34.9,30.16,North,5,0.0,0.0,83,0.00,,,0.14,Wunderground v.1.15,2013-01-03 02:10:00,
2013-01-02 21:15:00,39.6,34.6,30.16,North,5,0.0,0.0,82,0.00,,,0.14,Wunderground v.1.15,2013-01-03 02:15:00,
2013-01-02 21:20:00,39.6,34.6,30.15,North,5,0.0,0.0,82,0.00,,,0.14,Wunderground v.1.15,2013-01-03 02:20:00,
2013-01-02 21:25:00,39.6,33.9,30.15,North,5,0.0,0.0,80,0.00,,,0.14,Wunderground v.1.15,2013-01-03 02:25:00,
2013-01-02 21:30:00,39.6,33.6,30.16,North,5,0.0,0.0,79,0.00,,,0.14,Wunderground v.1.15,2013-01-03 02:30:00,
2013-01-02 21:35:00,39.6,33.6,30.16,North,5,0.0,0.0,79,0.00,,,0.14,Wunderground v.1.15,2013-01-03 02:35:00,
2013-01-02 21:40:00,39.6,33.6,30.15,North,5,0.0,1.0,79,0.00,,,0.14,Wunderground v.1.15,2013-01-03 02:40:00,
2013-01-02 21:50:00,39.6,33.6,30.16,North,5,0.0,0.0,79,0.00,,,0.14,Wunderground v.1.15,2013-01-03 02:50:00,
2013-01-02 21:55:00,39.6,33.6,30.17,North,5,0.0,0.0,79,0.00,,,0.14,Wunderground v.1.15,2013-01-03 02:55:00,
2013-01-02 22:00:00,39.4,33.4,30.16,North,5,0.0,0.0,79,0.00,,,0.14,Wunderground v.1.15,2013-01-03 03:00:00,
2013-01-02 22:05:00,39.4,33.1,30.17,North,5,0.0,0.0,78,0.00,,,0.14,Wunderground v.1.15,2013-01-03 03:05:00,
2013-01-02 22:10:00,39.4,33.1,30.17,North,5,0.0,0.0,78,0.00,,,0.14,Wunderground v.1.15,2013-01-03 03:10:00,
2013-01-02 22:20:00,39.4,33.4,30.17,North,5,0.0,0.0,79,0.00,,,0.14,Wunderground v.1.15,2013-01-03 03:20:00,
2013-01-02 22:25:00,39.3,33.3,30.17,North,5,0.0,0.0,79,0.00,,,0.14,Wunderground v.1.15,2013-01-03 03:25:00,
2013-01-02 22:30:00,39.3,33.6,30.17,North,5,0.0,0.0,80,0.00,,,0.14,Wunderground v.1.15,2013-01-03 03:30:00,
2013-01-02 22:35:00,39.3,33.6,30.17,North,5,0.0,0.0,80,0.00,,,0.14,Wunderground v.1.15,2013-01-03 03:35:00,
2013-01-02 22:40:00,39.3,33.6,30.18,North,5,0.0,0.0,80,0.00,,,0.14,Wunderground v.1.15,2013-01-03 03:40:00,
2013-01-02 22:45:00,39.3,34.0,30.18,North,5,0.0,0.0,81,0.00,,,0.14,Wunderground v.1.15,2013-01-03 03:45:00,
2013-01-02 22:50:00,39.1,34.1,30.18,North,5,0.0,0.0,82,0.00,,,0.14,Wunderground v.1.15,2013-01-03 03:50:00,
2013-01-02 22:55:00,39.1,34.1,30.17,North,5,0.0,0.0,82,0.00,,,0.14,Wunderground v.1.15,2013-01-03 03:55:00,
2013-01-02 23:00:00,39.1,34.1,30.18,North,5,0.0,0.0,82,0.00,,,0.14,Wunderground v.1.15,2013-01-03 04:00:00,
2013-01-02 23:05:00,39.0,34.0,30.18,North,5,0.0,0.0,82,0.00,,,0.14,Wunderground v.1.15,2013-01-03 04:05:00,
2013-01-02 23:10:00,38.8,34.1,30.17,North,5,0.0,0.0,83,0.00,,,0.14,Wunderground v.1.15,2013-01-03 04:10:00,
2013-01-02 23:15:00,38.7,34.0,30.18,North,5,0.0,0.0,83,0.00,,,0.14,Wunderground v.1.15,2013-01-03 04:15:00,
2013-01-02 23:20:00,38.7,34.3,30.18,North,5,0.0,0.0,84,0.00,,,0.14,Wunderground v.1.15,2013-01-03 04:20:00,
2013-01-02 23:25:00,38.7,34.3,30.18,North,5,0.0,0.0,84,0.00,,,0.14,Wunderground v.1.15,2013-01-03 04:25:00,
2013-01-02 23:30:00,38.6,34.2,30.18,North,5,0.0,0.0,84,0.00,,,0.14,Wunderground v.1.15,2013-01-03 04:30:00,
2013-01-02 23:35:00,38.4,34.0,30.17,North,5,0.0,0.0,84,0.00,,,0.14,Wunderground v.1.15,2013-01-03 04:35:00,
2013-01-02 23:40:00,38.4,34.0,30.17,North,5,0.0,0.0,84,0.00,,,0.14,Wunderground v.1.15,2013-01-03 04:40:00,
2013-01-02 23:45:00,38.4,34.0,30.17,North,5,0.0,0.0,84,0.00,,,0.14,Wunderground v.1.15,2013-01-03 04:45:00,
2013-01-02 23:50:00,38.3,34.2,30.17,North,5,0.0,0.0,85,0.00,,,0.14,Wunderground v.1.15,2013-01-03 04:50:00,
2013-01-02 23:55:00,38.3,34.2,30.17,North,5,0.0,0.0,85,0.00,,,0.14,Wunderground v.1.15,2013-01-03 04:55:00,